#datetime,building,power
2022-07-21T00:00:00,sdl,8.09
2022-07-21T00:01:00,sdl,6.69
2022-07-21T00:02:00,sdl,6.73
2022-07-21T00:03:00,sdl,7.98
2022-07-21T00:04:00,sdl,7.21
2022-07-21T00:05:00,sdl,7.46
2022-07-21T00:06:00,sdl,9.66
2022-07-21T00:07:00,sdl,9.88
2022-07-21T00:08:00,sdl,9.99
2022-07-21T00:09:00,sdl,10.16
2022-07-21T00:10:00,sdl,10.18
2022-07-21T00:11:00,sdl,10.22
2022-07-21T00:12:00,sdl,12.57
2022-07-21T00:13:00,sdl,15.40
2022-07-21T00:14:00,sdl,14.80
2022-07-21T00:15:00,sdl,14.67
2022-07-21T00:16:00,sdl,14.91
2022-07-21T00:17:00,sdl,15.03
2022-07-21T00:18:00,sdl,15.17
2022-07-21T00:19:00,sdl,15.22
2022-07-21T00:20:00,sdl,15.35
2022-07-21T00:21:00,sdl,17.17
2022-07-21T00:22:00,sdl,17.23
2022-07-21T00:23:00,sdl,16.83
2022-07-21T00:24:00,sdl,14.64
2022-07-21T00:25:00,sdl,14.77
2022-07-21T00:26:00,sdl,14.90
2022-07-21T00:27:00,sdl,15.09
2022-07-21T00:28:00,sdl,13.85
2022-07-21T00:29:00,sdl,6.53
2022-07-21T00:30:00,sdl,6.52
2022-07-21T00:31:00,sdl,6.47
2022-07-21T00:32:00,sdl,4.77
2022-07-21T00:33:00,sdl,3.06
2022-07-21T00:34:00,sdl,2.98
2022-07-21T00:35:00,sdl,2.96
2022-07-21T00:36:00,sdl,2.85
2022-07-21T00:37:00,sdl,2.81
2022-07-21T00:38:00,sdl,4.33
2022-07-21T00:39:00,sdl,4.28
2022-07-21T00:40:00,sdl,4.34
2022-07-21T00:41:00,sdl,4.34
2022-07-21T00:42:00,sdl,4.32
2022-07-21T00:43:00,sdl,4.33
2022-07-21T00:44:00,sdl,4.42
2022-07-21T00:45:00,sdl,4.41
2022-07-21T00:46:00,sdl,4.49
2022-07-21T00:47:00,sdl,4.54
2022-07-21T00:48:00,sdl,4.55
2022-07-21T00:49:00,sdl,3.02
2022-07-21T00:50:00,sdl,3.26
2022-07-21T00:51:00,sdl,3.31
2022-07-21T00:52:00,sdl,2.91
2022-07-21T00:53:00,sdl,2.86
2022-07-21T00:54:00,sdl,2.94
2022-07-21T00:55:00,sdl,2.87
2022-07-21T00:56:00,sdl,2.88
2022-07-21T00:57:00,sdl,2.79
2022-07-21T00:58:00,sdl,5.50
2022-07-21T00:59:00,sdl,6.35
2022-07-21T01:00:00,sdl,6.40
2022-07-21T01:01:00,sdl,6.46
2022-07-21T01:02:00,sdl,6.44
2022-07-21T01:03:00,sdl,6.37
2022-07-21T01:04:00,sdl,6.41
2022-07-21T01:05:00,sdl,6.46
2022-07-21T01:06:00,sdl,6.49
2022-07-21T01:07:00,sdl,6.47
2022-07-21T01:08:00,sdl,5.08
2022-07-21T01:09:00,sdl,5.32
2022-07-21T01:10:00,sdl,5.02
2022-07-21T01:11:00,sdl,5.04
2022-07-21T01:12:00,sdl,4.96
2022-07-21T01:13:00,sdl,4.93
2022-07-21T01:14:00,sdl,5.04
2022-07-21T01:15:00,sdl,2.78
2022-07-21T01:16:00,sdl,2.55
2022-07-21T01:17:00,sdl,2.84
2022-07-21T01:18:00,sdl,4.09
2022-07-21T01:19:00,sdl,4.49
2022-07-21T01:20:00,sdl,4.50
2022-07-21T01:21:00,sdl,3.71
2022-07-21T01:22:00,sdl,3.74
2022-07-21T01:23:00,sdl,3.95
2022-07-21T01:24:00,sdl,3.90
2022-07-21T01:25:00,sdl,3.98
2022-07-21T01:26:00,sdl,3.87
2022-07-21T01:27:00,sdl,2.63
2022-07-21T01:28:00,sdl,2.53
2022-07-21T01:29:00,sdl,2.51
2022-07-21T01:30:00,sdl,2.56
2022-07-21T01:31:00,sdl,2.49
2022-07-21T01:32:00,sdl,2.63
2022-07-21T01:33:00,sdl,2.63
2022-07-21T01:34:00,sdl,2.00
2022-07-21T01:35:00,sdl,2.73
2022-07-21T01:36:00,sdl,6.13
2022-07-21T01:37:00,sdl,6.52
2022-07-21T01:38:00,sdl,6.19
2022-07-21T01:39:00,sdl,6.07
2022-07-21T01:40:00,sdl,6.14
2022-07-21T01:41:00,sdl,6.14
2022-07-21T01:42:00,sdl,6.16
2022-07-21T01:43:00,sdl,6.19
2022-07-21T01:44:00,sdl,6.13
2022-07-21T01:45:00,sdl,4.72
2022-07-21T01:46:00,sdl,2.50
2022-07-21T01:47:00,sdl,2.48
2022-07-21T01:48:00,sdl,2.60
2022-07-21T01:49:00,sdl,2.98
2022-07-21T01:50:00,sdl,3.08
2022-07-21T01:51:00,sdl,2.73
2022-07-21T01:52:00,sdl,2.67
2022-07-21T01:53:00,sdl,2.87
2022-07-21T01:54:00,sdl,3.92
2022-07-21T01:55:00,sdl,3.95
2022-07-21T01:56:00,sdl,4.55
2022-07-21T01:57:00,sdl,4.49
2022-07-21T01:58:00,sdl,4.46
2022-07-21T01:59:00,sdl,4.39
2022-07-21T02:00:00,sdl,4.81
2022-07-21T02:01:00,sdl,5.72
2022-07-21T02:02:00,sdl,4.94
2022-07-21T02:03:00,sdl,4.83
2022-07-21T02:04:00,sdl,4.82
2022-07-21T02:05:00,sdl,4.83
2022-07-21T02:06:00,sdl,4.90
2022-07-21T02:07:00,sdl,4.84
2022-07-21T02:08:00,sdl,4.68
2022-07-21T02:09:00,sdl,4.78
2022-07-21T02:10:00,sdl,5.82
2022-07-21T02:11:00,sdl,5.69
2022-07-21T02:12:00,sdl,7.96
2022-07-21T02:13:00,sdl,7.95
2022-07-21T02:14:00,sdl,7.90
2022-07-21T02:15:00,sdl,7.98
2022-07-21T02:16:00,sdl,7.82
2022-07-21T02:17:00,sdl,7.90
2022-07-21T02:18:00,sdl,6.94
2022-07-21T02:19:00,sdl,6.84
2022-07-21T02:20:00,sdl,6.84
2022-07-21T02:21:00,sdl,6.88
2022-07-21T02:22:00,sdl,6.89
2022-07-21T02:23:00,sdl,7.14
2022-07-21T02:24:00,sdl,6.78
2022-07-21T02:25:00,sdl,6.74
2022-07-21T02:26:00,sdl,6.85
2022-07-21T02:27:00,sdl,7.90
2022-07-21T02:28:00,sdl,5.71
2022-07-21T02:29:00,sdl,5.71
2022-07-21T02:30:00,sdl,5.76
2022-07-21T02:31:00,sdl,5.75
2022-07-21T02:32:00,sdl,5.80
2022-07-21T02:33:00,sdl,5.70
2022-07-21T02:34:00,sdl,4.78
2022-07-21T02:35:00,sdl,4.78
2022-07-21T02:36:00,sdl,4.70
2022-07-21T02:37:00,sdl,4.77
2022-07-21T02:38:00,sdl,4.74
2022-07-21T02:39:00,sdl,4.68
2022-07-21T02:40:00,sdl,4.63
2022-07-21T02:41:00,sdl,4.67
2022-07-21T02:42:00,sdl,4.50
2022-07-21T02:43:00,sdl,4.51
2022-07-21T02:44:00,sdl,5.35
2022-07-21T02:45:00,sdl,5.29
2022-07-21T02:46:00,sdl,5.50
2022-07-21T02:47:00,sdl,5.43
2022-07-21T02:48:00,sdl,5.40
2022-07-21T02:49:00,sdl,5.71
2022-07-21T02:50:00,sdl,5.44
2022-07-21T02:51:00,sdl,4.50
2022-07-21T02:52:00,sdl,4.71
2022-07-21T02:53:00,sdl,4.75
2022-07-21T02:54:00,sdl,4.67
2022-07-21T02:55:00,sdl,4.29
2022-07-21T02:56:00,sdl,4.42
2022-07-21T02:57:00,sdl,4.38
2022-07-21T02:58:00,sdl,4.46
2022-07-21T02:59:00,sdl,4.47
2022-07-21T03:00:00,sdl,4.98
2022-07-21T03:01:00,sdl,5.07
2022-07-21T03:02:00,sdl,5.05
2022-07-21T03:03:00,sdl,5.57
2022-07-21T03:04:00,sdl,7.40
2022-07-21T03:05:00,sdl,7.39
2022-07-21T03:06:00,sdl,7.37
2022-07-21T03:07:00,sdl,7.39
2022-07-21T03:08:00,sdl,6.45
2022-07-21T03:09:00,sdl,6.44
2022-07-21T03:10:00,sdl,6.41
2022-07-21T03:11:00,sdl,6.54
2022-07-21T03:12:00,sdl,6.39
2022-07-21T03:13:00,sdl,6.43
2022-07-21T03:14:00,sdl,6.80
2022-07-21T03:15:00,sdl,6.49
2022-07-21T03:16:00,sdl,6.47
2022-07-21T03:17:00,sdl,6.46
2022-07-21T03:18:00,sdl,7.80
2022-07-21T03:19:00,sdl,5.37
2022-07-21T03:20:00,sdl,5.41
2022-07-21T03:21:00,sdl,5.45
2022-07-21T03:22:00,sdl,5.47
2022-07-21T03:23:00,sdl,5.54
2022-07-21T03:24:00,sdl,5.51
2022-07-21T03:25:00,sdl,5.93
2022-07-21T03:26:00,sdl,4.96
2022-07-21T03:27:00,sdl,4.51
2022-07-21T03:28:00,sdl,4.36
2022-07-21T03:29:00,sdl,4.31
2022-07-21T03:30:00,sdl,4.31
2022-07-21T03:31:00,sdl,4.39
2022-07-21T03:32:00,sdl,4.37
2022-07-21T03:33:00,sdl,4.39
2022-07-21T03:34:00,sdl,4.34
2022-07-21T03:35:00,sdl,6.50
2022-07-21T03:36:00,sdl,7.46
2022-07-21T03:37:00,sdl,7.41
2022-07-21T03:38:00,sdl,7.47
2022-07-21T03:39:00,sdl,7.57
2022-07-21T03:40:00,sdl,8.00
2022-07-21T03:41:00,sdl,7.99
2022-07-21T03:42:00,sdl,7.99
2022-07-21T03:43:00,sdl,7.98
2022-07-21T03:44:00,sdl,7.09
2022-07-21T03:45:00,sdl,6.99
2022-07-21T03:46:00,sdl,7.41
2022-07-21T03:47:00,sdl,7.07
2022-07-21T03:48:00,sdl,7.06
2022-07-21T03:49:00,sdl,4.67
2022-07-21T03:50:00,sdl,4.69
2022-07-21T03:51:00,sdl,4.71
2022-07-21T03:52:00,sdl,4.67
2022-07-21T03:53:00,sdl,4.63
2022-07-21T03:54:00,sdl,5.53
2022-07-21T03:55:00,sdl,5.53
2022-07-21T03:56:00,sdl,5.65
2022-07-21T03:57:00,sdl,5.65
2022-07-21T03:58:00,sdl,5.61
2022-07-21T03:59:00,sdl,6.02
2022-07-21T04:00:00,sdl,6.02
2022-07-21T04:01:00,sdl,4.66
2022-07-21T04:02:00,sdl,4.78
2022-07-21T04:03:00,sdl,4.80
2022-07-21T04:04:00,sdl,4.62
2022-07-21T04:05:00,sdl,4.59
2022-07-21T04:06:00,sdl,4.56
2022-07-21T04:07:00,sdl,4.58
2022-07-21T04:08:00,sdl,4.47
2022-07-21T04:09:00,sdl,4.52
2022-07-21T04:10:00,sdl,5.45
2022-07-21T04:11:00,sdl,5.41
2022-07-21T04:12:00,sdl,5.84
2022-07-21T04:13:00,sdl,5.47
2022-07-21T04:14:00,sdl,5.45
2022-07-21T04:15:00,sdl,5.81
2022-07-21T04:16:00,sdl,5.56
2022-07-21T04:17:00,sdl,5.62
2022-07-21T04:18:00,sdl,4.67
2022-07-21T04:19:00,sdl,4.74
2022-07-21T04:20:00,sdl,4.72
2022-07-21T04:21:00,sdl,4.85
2022-07-21T04:22:00,sdl,4.69
2022-07-21T04:23:00,sdl,4.76
2022-07-21T04:24:00,sdl,6.93
2022-07-21T04:25:00,sdl,6.92
2022-07-21T04:26:00,sdl,6.84
2022-07-21T04:27:00,sdl,7.84
2022-07-21T04:28:00,sdl,8.18
2022-07-21T04:29:00,sdl,8.15
2022-07-21T04:30:00,sdl,8.29
2022-07-21T04:31:00,sdl,8.03
2022-07-21T04:32:00,sdl,8.02
2022-07-21T04:33:00,sdl,8.01
2022-07-21T04:34:00,sdl,7.09
2022-07-21T04:35:00,sdl,7.04
2022-07-21T04:36:00,sdl,6.63
2022-07-21T04:37:00,sdl,6.67
2022-07-21T04:38:00,sdl,6.66
2022-07-21T04:39:00,sdl,4.35
2022-07-21T04:40:00,sdl,4.38
2022-07-21T04:41:00,sdl,4.26
2022-07-21T04:42:00,sdl,5.44
2022-07-21T04:43:00,sdl,5.85
2022-07-21T04:44:00,sdl,5.38
2022-07-21T04:45:00,sdl,5.40
2022-07-21T04:46:00,sdl,5.42
2022-07-21T04:47:00,sdl,5.43
2022-07-21T04:48:00,sdl,5.50
2022-07-21T04:49:00,sdl,5.56
2022-07-21T04:50:00,sdl,4.76
2022-07-21T04:51:00,sdl,5.31
2022-07-21T04:52:00,sdl,5.34
2022-07-21T04:53:00,sdl,4.96
2022-07-21T04:54:00,sdl,4.85
2022-07-21T04:55:00,sdl,4.85
2022-07-21T04:56:00,sdl,4.81
2022-07-21T04:57:00,sdl,6.89
2022-07-21T04:58:00,sdl,7.33
2022-07-21T04:59:00,sdl,7.85
2022-07-21T05:00:00,sdl,7.84
2022-07-21T05:01:00,sdl,7.82
2022-07-21T05:02:00,sdl,8.21
2022-07-21T05:03:00,sdl,8.22
2022-07-21T05:04:00,sdl,7.81
2022-07-21T05:05:00,sdl,7.32
2022-07-21T05:06:00,sdl,6.96
2022-07-21T05:07:00,sdl,6.99
2022-07-21T05:08:00,sdl,4.96
2022-07-21T05:09:00,sdl,4.93
2022-07-21T05:10:00,sdl,4.91
2022-07-21T05:11:00,sdl,4.81
2022-07-21T05:12:00,sdl,5.12
2022-07-21T05:13:00,sdl,4.91
2022-07-21T05:14:00,sdl,4.86
2022-07-21T05:15:00,sdl,5.74
2022-07-21T05:16:00,sdl,5.73
2022-07-21T05:17:00,sdl,5.59
2022-07-21T05:18:00,sdl,5.53
2022-07-21T05:19:00,sdl,5.48
2022-07-21T05:20:00,sdl,5.48
2022-07-21T05:21:00,sdl,5.48
2022-07-21T05:22:00,sdl,4.61
2022-07-21T05:23:00,sdl,4.72
2022-07-21T05:24:00,sdl,4.77
2022-07-21T05:25:00,sdl,4.78
2022-07-21T05:26:00,sdl,4.77
2022-07-21T05:27:00,sdl,5.05
2022-07-21T05:28:00,sdl,4.84
2022-07-21T05:29:00,sdl,4.82
2022-07-21T05:30:00,sdl,4.82
2022-07-21T05:31:00,sdl,5.74
2022-07-21T05:32:00,sdl,6.00
2022-07-21T05:33:00,sdl,6.03
2022-07-21T05:34:00,sdl,5.62
2022-07-21T05:35:00,sdl,5.63
2022-07-21T05:36:00,sdl,5.63
2022-07-21T05:37:00,sdl,5.18
2022-07-21T05:38:00,sdl,7.17
2022-07-21T05:39:00,sdl,6.52
2022-07-21T05:40:00,sdl,6.51
2022-07-21T05:41:00,sdl,6.55
2022-07-21T05:42:00,sdl,6.56
2022-07-21T05:43:00,sdl,6.60
2022-07-21T05:44:00,sdl,6.62
2022-07-21T05:45:00,sdl,6.56
2022-07-21T05:46:00,sdl,6.51
2022-07-21T05:47:00,sdl,7.38
2022-07-21T05:48:00,sdl,7.32
2022-07-21T05:49:00,sdl,7.37
2022-07-21T05:50:00,sdl,7.30
2022-07-21T05:51:00,sdl,7.29
2022-07-21T05:52:00,sdl,7.18
2022-07-21T05:53:00,sdl,6.24
2022-07-21T05:54:00,sdl,3.95
2022-07-21T05:55:00,sdl,3.96
2022-07-21T05:56:00,sdl,3.97
2022-07-21T05:57:00,sdl,3.98
2022-07-21T05:58:00,sdl,3.95
2022-07-21T05:59:00,sdl,4.09
2022-07-21T06:00:00,sdl,4.03
2022-07-21T06:01:00,sdl,4.02
2022-07-21T06:02:00,sdl,5.36
2022-07-21T06:03:00,sdl,5.37
2022-07-21T06:04:00,sdl,5.12
2022-07-21T06:05:00,sdl,5.08
2022-07-21T06:06:00,sdl,5.07
2022-07-21T06:07:00,sdl,5.06
2022-07-21T06:08:00,sdl,5.01
2022-07-21T06:09:00,sdl,4.13
2022-07-21T06:10:00,sdl,4.21
2022-07-21T06:11:00,sdl,4.11
2022-07-21T06:12:00,sdl,4.22
2022-07-21T06:13:00,sdl,4.16
2022-07-21T06:14:00,sdl,6.80
2022-07-21T06:15:00,sdl,6.78
2022-07-21T06:16:00,sdl,6.80
2022-07-21T06:17:00,sdl,8.01
2022-07-21T06:18:00,sdl,9.07
2022-07-21T06:19:00,sdl,8.97
2022-07-21T06:20:00,sdl,9.43
2022-07-21T06:21:00,sdl,8.98
2022-07-21T06:22:00,sdl,8.97
2022-07-21T06:23:00,sdl,9.14
2022-07-21T06:24:00,sdl,9.45
2022-07-21T06:25:00,sdl,6.87
2022-07-21T06:26:00,sdl,6.02
2022-07-21T06:27:00,sdl,5.95
2022-07-21T06:28:00,sdl,5.95
2022-07-21T06:29:00,sdl,6.59
2022-07-21T06:30:00,sdl,6.92
2022-07-21T06:31:00,sdl,6.99
2022-07-21T06:32:00,sdl,6.44
2022-07-21T06:33:00,sdl,6.32
2022-07-21T06:34:00,sdl,6.42
2022-07-21T06:35:00,sdl,6.59
2022-07-21T06:36:00,sdl,6.62
2022-07-21T06:37:00,sdl,6.65
2022-07-21T06:38:00,sdl,6.64
2022-07-21T06:39:00,sdl,6.62
2022-07-21T06:40:00,sdl,6.64
2022-07-21T06:41:00,sdl,6.66
2022-07-21T06:42:00,sdl,6.83
2022-07-21T06:43:00,sdl,6.75
2022-07-21T06:44:00,sdl,6.86
2022-07-21T06:45:00,sdl,5.85
2022-07-21T06:46:00,sdl,5.83
2022-07-21T06:47:00,sdl,5.87
2022-07-21T06:48:00,sdl,5.81
2022-07-21T06:49:00,sdl,5.83
2022-07-21T06:50:00,sdl,5.81
2022-07-21T06:51:00,sdl,5.83
2022-07-21T06:52:00,sdl,5.84
2022-07-21T06:53:00,sdl,9.33
2022-07-21T06:54:00,sdl,9.02
2022-07-21T06:55:00,sdl,9.01
2022-07-21T06:56:00,sdl,9.02
2022-07-21T06:57:00,sdl,9.02
2022-07-21T06:58:00,sdl,9.04
2022-07-21T06:59:00,sdl,9.06
2022-07-21T07:00:00,sdl,9.49
2022-07-21T07:01:00,sdl,9.58
2022-07-21T07:02:00,sdl,11.80
2022-07-21T07:03:00,sdl,10.99
2022-07-21T07:04:00,sdl,10.97
2022-07-21T07:05:00,sdl,13.97
2022-07-21T07:06:00,sdl,14.03
2022-07-21T07:07:00,sdl,14.22
2022-07-21T07:08:00,sdl,14.57
2022-07-21T07:09:00,sdl,14.56
2022-07-21T07:10:00,sdl,13.51
2022-07-21T07:11:00,sdl,13.60
2022-07-21T07:12:00,sdl,16.75
2022-07-21T07:13:00,sdl,16.94
2022-07-21T07:14:00,sdl,16.75
2022-07-21T07:15:00,sdl,16.87
2022-07-21T07:16:00,sdl,16.96
2022-07-21T07:17:00,sdl,17.30
2022-07-21T07:18:00,sdl,17.25
2022-07-21T07:19:00,sdl,17.36
2022-07-21T07:20:00,sdl,17.28
2022-07-21T07:21:00,sdl,16.33
2022-07-21T07:22:00,sdl,16.37
2022-07-21T07:23:00,sdl,16.30
2022-07-21T07:24:00,sdl,16.31
2022-07-21T07:25:00,sdl,16.31
2022-07-21T07:26:00,sdl,16.36
2022-07-21T07:27:00,sdl,16.25
2022-07-21T07:28:00,sdl,17.46
2022-07-21T07:29:00,sdl,17.69
2022-07-21T07:30:00,sdl,17.77
2022-07-21T07:31:00,sdl,17.73
2022-07-21T07:32:00,sdl,17.26
2022-07-21T07:33:00,sdl,17.27
2022-07-21T07:34:00,sdl,19.13
2022-07-21T07:35:00,sdl,19.11
2022-07-21T07:36:00,sdl,18.98
2022-07-21T07:37:00,sdl,18.99
2022-07-21T07:38:00,sdl,18.67
2022-07-21T07:39:00,sdl,18.61
2022-07-21T07:40:00,sdl,18.62
2022-07-21T07:41:00,sdl,18.64
2022-07-21T07:42:00,sdl,17.49
2022-07-21T07:43:00,sdl,17.60
2022-07-21T07:44:00,sdl,15.36
2022-07-21T07:45:00,sdl,15.00
2022-07-21T07:46:00,sdl,14.90
2022-07-21T07:47:00,sdl,15.06
2022-07-21T07:48:00,sdl,13.70
2022-07-21T07:49:00,sdl,13.75
2022-07-21T07:50:00,sdl,15.22
2022-07-21T07:51:00,sdl,15.53
2022-07-21T07:52:00,sdl,15.31
2022-07-21T07:53:00,sdl,15.42
2022-07-21T07:54:00,sdl,15.41
2022-07-21T07:55:00,sdl,15.41
2022-07-21T07:56:00,sdl,15.87
2022-07-21T07:57:00,sdl,16.02
2022-07-21T07:58:00,sdl,15.60
2022-07-21T07:59:00,sdl,15.71
2022-07-21T08:00:00,sdl,15.60
2022-07-21T08:01:00,sdl,16.27
2022-07-21T08:02:00,sdl,15.62
2022-07-21T08:03:00,sdl,15.78
2022-07-21T08:04:00,sdl,16.14
2022-07-21T08:05:00,sdl,15.75
2022-07-21T08:06:00,sdl,15.64
2022-07-21T08:07:00,sdl,17.89
2022-07-21T08:08:00,sdl,18.88
2022-07-21T08:09:00,sdl,18.84
2022-07-21T08:10:00,sdl,18.83
2022-07-21T08:11:00,sdl,19.20
2022-07-21T08:12:00,sdl,19.11
2022-07-21T08:13:00,sdl,19.34
2022-07-21T08:14:00,sdl,19.66
2022-07-21T08:15:00,sdl,19.71
2022-07-21T08:16:00,sdl,19.71
2022-07-21T08:17:00,sdl,19.55
2022-07-21T08:18:00,sdl,18.77
2022-07-21T08:19:00,sdl,18.93
2022-07-21T08:20:00,sdl,18.44
2022-07-21T08:21:00,sdl,18.60
2022-07-21T08:22:00,sdl,18.61
2022-07-21T08:23:00,sdl,18.73
2022-07-21T08:24:00,sdl,18.60
2022-07-21T08:25:00,sdl,20.33
2022-07-21T08:26:00,sdl,20.07
2022-07-21T08:27:00,sdl,17.95
2022-07-21T08:28:00,sdl,17.57
2022-07-21T08:29:00,sdl,17.81
2022-07-21T08:30:00,sdl,17.59
2022-07-21T08:31:00,sdl,17.62
2022-07-21T08:32:00,sdl,17.57
2022-07-21T08:33:00,sdl,17.59
2022-07-21T08:34:00,sdl,17.98
2022-07-21T08:35:00,sdl,17.70
2022-07-21T08:36:00,sdl,17.01
2022-07-21T08:37:00,sdl,16.68
2022-07-21T08:38:00,sdl,16.59
2022-07-21T08:39:00,sdl,16.50
2022-07-21T08:40:00,sdl,16.39
2022-07-21T08:41:00,sdl,16.43
2022-07-21T08:42:00,sdl,17.60
2022-07-21T08:43:00,sdl,16.29
2022-07-21T08:44:00,sdl,16.38
2022-07-21T08:45:00,sdl,17.45
2022-07-21T08:46:00,sdl,17.41
2022-07-21T08:47:00,sdl,17.45
2022-07-21T08:48:00,sdl,16.92
2022-07-21T08:49:00,sdl,17.01
2022-07-21T08:50:00,sdl,17.03
2022-07-21T08:51:00,sdl,17.03
2022-07-21T08:52:00,sdl,16.94
2022-07-21T08:53:00,sdl,15.84
2022-07-21T08:54:00,sdl,15.88
2022-07-21T08:55:00,sdl,15.84
2022-07-21T08:56:00,sdl,15.28
2022-07-21T08:57:00,sdl,15.27
2022-07-21T08:58:00,sdl,14.89
2022-07-21T08:59:00,sdl,15.14
2022-07-21T09:00:00,sdl,16.11
2022-07-21T09:01:00,sdl,16.26
2022-07-21T09:02:00,sdl,15.88
2022-07-21T09:03:00,sdl,22.01
2022-07-21T09:04:00,sdl,24.54
2022-07-21T09:05:00,sdl,24.47
2022-07-21T09:06:00,sdl,18.88
2022-07-21T09:07:00,sdl,12.72
2022-07-21T09:08:00,sdl,14.64
2022-07-21T09:09:00,sdl,14.85
2022-07-21T09:10:00,sdl,20.47
2022-07-21T09:11:00,sdl,15.27
2022-07-21T09:12:00,sdl,14.83
2022-07-21T09:13:00,sdl,15.09
2022-07-21T09:14:00,sdl,19.61
2022-07-21T09:15:00,sdl,19.81
2022-07-21T09:16:00,sdl,14.89
2022-07-21T09:17:00,sdl,14.80
2022-07-21T09:18:00,sdl,15.12
2022-07-21T09:19:00,sdl,15.16
2022-07-21T09:20:00,sdl,15.16
2022-07-21T09:21:00,sdl,20.63
2022-07-21T09:22:00,sdl,19.93
2022-07-21T09:23:00,sdl,15.16
2022-07-21T09:24:00,sdl,15.13
2022-07-21T09:25:00,sdl,15.30
2022-07-21T09:26:00,sdl,13.32
2022-07-21T09:27:00,sdl,19.08
2022-07-21T09:28:00,sdl,13.66
2022-07-21T09:29:00,sdl,13.45
2022-07-21T09:30:00,sdl,13.99
2022-07-21T09:31:00,sdl,13.87
2022-07-21T09:32:00,sdl,13.56
2022-07-21T09:33:00,sdl,18.93
2022-07-21T09:34:00,sdl,13.16
2022-07-21T09:35:00,sdl,13.05
2022-07-21T09:36:00,sdl,13.74
2022-07-21T09:37:00,sdl,13.07
2022-07-21T09:38:00,sdl,13.23
2022-07-21T09:39:00,sdl,22.17
2022-07-21T09:40:00,sdl,16.40
2022-07-21T09:41:00,sdl,19.29
2022-07-21T09:42:00,sdl,23.76
2022-07-21T09:43:00,sdl,18.56
2022-07-21T09:44:00,sdl,23.66
2022-07-21T09:45:00,sdl,18.90
2022-07-21T09:46:00,sdl,25.93
2022-07-21T09:47:00,sdl,22.19
2022-07-21T09:48:00,sdl,22.41
2022-07-21T09:49:00,sdl,26.05
2022-07-21T09:50:00,sdl,22.79
2022-07-21T09:51:00,sdl,26.29
2022-07-21T09:52:00,sdl,22.77
2022-07-21T09:53:00,sdl,23.71
2022-07-21T09:54:00,sdl,16.32
2022-07-21T09:55:00,sdl,14.18
2022-07-21T09:56:00,sdl,18.55
2022-07-21T09:57:00,sdl,13.09
2022-07-21T09:58:00,sdl,13.61
2022-07-21T09:59:00,sdl,14.04
2022-07-21T10:00:00,sdl,13.82
2022-07-21T10:01:00,sdl,13.78
2022-07-21T10:02:00,sdl,13.57
2022-07-21T10:03:00,sdl,20.04
2022-07-21T10:04:00,sdl,14.52
2022-07-21T10:05:00,sdl,14.70
2022-07-21T10:06:00,sdl,14.39
2022-07-21T10:07:00,sdl,14.14
2022-07-21T10:08:00,sdl,13.81
2022-07-21T10:09:00,sdl,16.56
2022-07-21T10:10:00,sdl,16.60
2022-07-21T10:11:00,sdl,17.00
2022-07-21T10:12:00,sdl,17.11
2022-07-21T10:13:00,sdl,17.22
2022-07-21T10:14:00,sdl,22.67
2022-07-21T10:15:00,sdl,17.09
2022-07-21T10:16:00,sdl,22.72
2022-07-21T10:17:00,sdl,22.56
2022-07-21T10:18:00,sdl,22.79
2022-07-21T10:19:00,sdl,22.83
2022-07-21T10:20:00,sdl,23.07
2022-07-21T10:21:00,sdl,23.65
2022-07-21T10:22:00,sdl,23.35
2022-07-21T10:23:00,sdl,23.84
2022-07-21T10:24:00,sdl,23.92
2022-07-21T10:25:00,sdl,22.91
2022-07-21T10:26:00,sdl,17.04
2022-07-21T10:27:00,sdl,17.05
2022-07-21T10:28:00,sdl,16.89
2022-07-21T10:29:00,sdl,17.55
2022-07-21T10:30:00,sdl,16.79
2022-07-21T10:31:00,sdl,22.11
2022-07-21T10:32:00,sdl,16.52
2022-07-21T10:33:00,sdl,16.43
2022-07-21T10:34:00,sdl,16.32
2022-07-21T10:35:00,sdl,15.04
2022-07-21T10:36:00,sdl,14.07
2022-07-21T10:37:00,sdl,14.21
2022-07-21T10:38:00,sdl,14.12
2022-07-21T10:39:00,sdl,14.05
2022-07-21T10:40:00,sdl,17.43
2022-07-21T10:41:00,sdl,17.59
2022-07-21T10:42:00,sdl,22.55
2022-07-21T10:43:00,sdl,17.21
2022-07-21T10:44:00,sdl,17.12
2022-07-21T10:45:00,sdl,17.23
2022-07-21T10:46:00,sdl,17.51
2022-07-21T10:47:00,sdl,20.63
2022-07-21T10:48:00,sdl,25.49
2022-07-21T10:49:00,sdl,17.14
2022-07-21T10:50:00,sdl,17.47
2022-07-21T10:51:00,sdl,16.12
2022-07-21T10:52:00,sdl,19.65
2022-07-21T10:53:00,sdl,19.49
2022-07-21T10:54:00,sdl,22.97
2022-07-21T10:55:00,sdl,23.49
2022-07-21T10:56:00,sdl,23.55
2022-07-21T10:57:00,sdl,23.54
2022-07-21T10:58:00,sdl,26.58
2022-07-21T10:59:00,sdl,24.59
2022-07-21T11:00:00,sdl,24.29
2022-07-21T11:01:00,sdl,23.59
2022-07-21T11:02:00,sdl,23.78
2022-07-21T11:03:00,sdl,26.14
2022-07-21T11:04:00,sdl,25.76
2022-07-21T11:05:00,sdl,21.87
2022-07-21T11:06:00,sdl,25.14
2022-07-21T11:07:00,sdl,25.95
2022-07-21T11:08:00,sdl,25.94
2022-07-21T11:09:00,sdl,22.34
2022-07-21T11:10:00,sdl,22.70
2022-07-21T11:11:00,sdl,26.21
2022-07-21T11:12:00,sdl,22.30
2022-07-21T11:13:00,sdl,26.20
2022-07-21T11:14:00,sdl,19.05
2022-07-21T11:15:00,sdl,24.48
2022-07-21T11:16:00,sdl,18.38
2022-07-21T11:17:00,sdl,24.27
2022-07-21T11:18:00,sdl,18.48
2022-07-21T11:19:00,sdl,23.05
2022-07-21T11:20:00,sdl,20.51
2022-07-21T11:21:00,sdl,21.09
2022-07-21T11:22:00,sdl,24.90
2022-07-21T11:23:00,sdl,21.17
2022-07-21T11:24:00,sdl,20.04
2022-07-21T11:25:00,sdl,14.02
2022-07-21T11:26:00,sdl,20.12
2022-07-21T11:27:00,sdl,14.36
2022-07-21T11:28:00,sdl,13.79
2022-07-21T11:29:00,sdl,19.65
2022-07-21T11:30:00,sdl,18.91
2022-07-21T11:31:00,sdl,13.67
2022-07-21T11:32:00,sdl,13.34
2022-07-21T11:33:00,sdl,13.11
2022-07-21T11:34:00,sdl,13.47
2022-07-21T11:35:00,sdl,12.68
2022-07-21T11:36:00,sdl,17.94
2022-07-21T11:37:00,sdl,11.93
2022-07-21T11:38:00,sdl,12.70
2022-07-21T11:39:00,sdl,18.31
2022-07-21T11:40:00,sdl,10.09
2022-07-21T11:41:00,sdl,9.97
2022-07-21T11:42:00,sdl,12.31
2022-07-21T11:43:00,sdl,11.47
2022-07-21T11:44:00,sdl,16.83
2022-07-21T11:45:00,sdl,10.88
2022-07-21T11:46:00,sdl,11.57
2022-07-21T11:47:00,sdl,16.32
2022-07-21T11:48:00,sdl,10.85
2022-07-21T11:49:00,sdl,11.16
2022-07-21T11:50:00,sdl,16.90
2022-07-21T11:51:00,sdl,21.84
2022-07-21T11:52:00,sdl,15.80
2022-07-21T11:53:00,sdl,15.87
2022-07-21T11:54:00,sdl,15.80
2022-07-21T11:55:00,sdl,21.45
2022-07-21T11:56:00,sdl,21.66
2022-07-21T11:57:00,sdl,15.22
2022-07-21T11:58:00,sdl,16.58
2022-07-21T11:59:00,sdl,21.66
2022-07-21T12:00:00,sdl,22.55
2022-07-21T12:01:00,sdl,22.01
2022-07-21T12:02:00,sdl,22.14
2022-07-21T12:03:00,sdl,23.70
2022-07-21T12:04:00,sdl,24.80
2022-07-21T12:05:00,sdl,24.88
2022-07-21T12:06:00,sdl,24.89
2022-07-21T12:07:00,sdl,27.10
2022-07-21T12:08:00,sdl,24.25
2022-07-21T12:09:00,sdl,24.04
2022-07-21T12:10:00,sdl,22.99
2022-07-21T12:11:00,sdl,23.26
2022-07-21T12:12:00,sdl,22.96
2022-07-21T12:13:00,sdl,23.39
2022-07-21T12:14:00,sdl,22.75
2022-07-21T12:15:00,sdl,22.99
2022-07-21T12:16:00,sdl,20.62
2022-07-21T12:17:00,sdl,21.04
2022-07-21T12:18:00,sdl,21.03
2022-07-21T12:19:00,sdl,21.31
2022-07-21T12:20:00,sdl,21.31
2022-07-21T12:21:00,sdl,21.34
2022-07-21T12:22:00,sdl,21.34
2022-07-21T12:23:00,sdl,20.94
2022-07-21T12:24:00,sdl,21.96
2022-07-21T12:25:00,sdl,21.17
2022-07-21T12:26:00,sdl,21.22
2022-07-21T12:27:00,sdl,21.18
2022-07-21T12:28:00,sdl,21.08
2022-07-21T12:29:00,sdl,21.85
2022-07-21T12:30:00,sdl,22.97
2022-07-21T12:31:00,sdl,21.59
2022-07-21T12:32:00,sdl,21.34
2022-07-21T12:33:00,sdl,21.96
2022-07-21T12:34:00,sdl,21.46
2022-07-21T12:35:00,sdl,23.77
2022-07-21T12:36:00,sdl,24.16
2022-07-21T12:37:00,sdl,24.35
2022-07-21T12:38:00,sdl,24.47
2022-07-21T12:39:00,sdl,24.45
2022-07-21T12:40:00,sdl,24.37
2022-07-21T12:41:00,sdl,24.46
2022-07-21T12:42:00,sdl,19.01
2022-07-21T12:43:00,sdl,19.05
2022-07-21T12:44:00,sdl,18.75
2022-07-21T12:45:00,sdl,19.18
2022-07-21T12:46:00,sdl,19.33
2022-07-21T12:47:00,sdl,19.05
2022-07-21T12:48:00,sdl,21.91
2022-07-21T12:49:00,sdl,21.58
2022-07-21T12:50:00,sdl,19.37
2022-07-21T12:51:00,sdl,19.72
2022-07-21T12:52:00,sdl,20.01
2022-07-21T12:53:00,sdl,19.37
2022-07-21T12:54:00,sdl,19.79
2022-07-21T12:55:00,sdl,23.09
2022-07-21T12:56:00,sdl,22.71
2022-07-21T12:57:00,sdl,22.44
2022-07-21T12:58:00,sdl,22.63
2022-07-21T12:59:00,sdl,22.82
2022-07-21T13:00:00,sdl,23.16
2022-07-21T13:01:00,sdl,23.05
2022-07-21T13:02:00,sdl,17.38
2022-07-21T13:03:00,sdl,17.38
2022-07-21T13:04:00,sdl,22.81
2022-07-21T13:05:00,sdl,24.37
2022-07-21T13:06:00,sdl,24.62
2022-07-21T13:07:00,sdl,24.47
2022-07-21T13:08:00,sdl,24.37
2022-07-21T13:09:00,sdl,19.49
2022-07-21T13:10:00,sdl,24.23
2022-07-21T13:11:00,sdl,19.19
2022-07-21T13:12:00,sdl,24.52
2022-07-21T13:13:00,sdl,20.58
2022-07-21T13:14:00,sdl,25.93
2022-07-21T13:15:00,sdl,25.28
2022-07-21T13:16:00,sdl,25.54
2022-07-21T13:17:00,sdl,25.31
2022-07-21T13:18:00,sdl,18.88
2022-07-21T13:19:00,sdl,24.32
2022-07-21T13:20:00,sdl,18.92
2022-07-21T13:21:00,sdl,24.01
2022-07-21T13:22:00,sdl,23.97
2022-07-21T13:23:00,sdl,23.83
2022-07-21T13:24:00,sdl,19.19
2022-07-21T13:25:00,sdl,23.83
2022-07-21T13:26:00,sdl,24.39
2022-07-21T13:27:00,sdl,19.71
2022-07-21T13:28:00,sdl,23.70
2022-07-21T13:29:00,sdl,24.40
2022-07-21T13:30:00,sdl,23.39
2022-07-21T13:31:00,sdl,18.82